Greenville-Spartanburg International Airport (GSP)

 

Airport Diagram
Current Weather/Forecast (VFR Conditions)
METAR KGSP 290353Z 00000KT 10SM CLR 08/05 A3014 RMK AO2 SLP202 T00780050
TAF KGSP 282325Z 2900/2924 10003KT P6SM FEW250 FM290900 04004KT P6SM FEW050 SCT250 FM291500 06005KT P6SM SCT050 BKN150 FM291700 06005KT P6SM OVC050 PROB30 2920/2923 4SM -RA BR OVC025 FM292300 05005KT P6SM -RA OVC025

All Charts
General
Chart Name Download
AIRPORT DIAGRAM
TAKEOFF MINIMUMS
ALTERNATE MINIMUMS

Departures
Chart Name Download
BIMMR TWO (RNAV)
BWALL TWO (RNAV)

Arrivals
Chart Name Download
JUNNR THREE (RNAV)
MCHLN TWO (RNAV)
RCTOR TWO (RNAV)
WORXS TWO (RNAV)

Approaches
Chart Name Download
ILS OR LOC RWY 04
ILS OR LOC RWY 22
ILS RWY 04 (SA CAT I)
ILS RWY 04 (CAT II - III)
RNAV (GPS) RWY 04
RNAV (GPS) RWY 22


Inbound Traffic (Arrivals)

No inbound traffic.


Outbound Traffic (Departures)

No outbound traffic.